Location: Bernadets
(43.3537°N, 0.3167°E)
Time: 21:39:19
(UTC+00:00)

Cosmos 2322 Rocket - Pass Details

Date: 24 October 2021
Orbit: 832 x 852 km, 71.0° (Epoch: 06 December)

Event Time Altitude Azimuth Distance (km) Brightness Sun altitude
Rises 18:01:32 0° 194° (SSW) 3,361 5.6 -11.6°
Reaches altitude 10° 18:03:59 10° 191° (S) 2,431 4.8 -12.0°
Maximum altitude 18:09:29 65° 111° (ESE) 912 2.1 -13.0°
Drops below altitude 10° 18:15:02 10° 30° (NNE) 2,452 4.3 -14.0°
Sets 18:17:30 0° 28° (NNE) 3,392 5.0 -14.5°
